FLOCK 2K-46 (42858 NORAD) Tracking and Keplerian Element Data

This shows tracking and keplerian element data for the satellite.

Feedback or suggestion? Click here.




ElementValue
Catalog42858
NameFLOCK 2K-46
Epoch Orbit3279
Epoch Day45.45898681
Epoch Year2018
RAAN308.2381
Inclination96.993
Eccentricity0.0010058
Argument of Perigee186.082
Mean Anonmoly174.0304
Mean Motion15.35635792
Decay Rate6.946E-05
L11 42858U 17042AK 18045.45898681 .00006946 00000-0 20235-3 0 9998
L22 42858 96.9930 308.2381 0010058 186.0820 174.0304 15.35635792 32795

Live tracking and technical data element details for FLOCK 2K-46 (NORAD 42858). FLOCK 2K-46 can be tracked NOW for your location showing map with azimuth and elevation plus other details from your city location.

Track the satellite on the map from your city or location and see movement details for azimuth, elevation, latitude, longitude, range, height, and movement on the map or in text.







IsCatalogInMostPopularTable: catalog: 42858, numindb: 139
Update: records affected: 1



GetName: 42858 FLOCK 2K-46

Hit Count: updated at: Wed, 14 Nov 2018 15:02:47 GMT